| time (UTC) | temp F | wind direction | speed knots | gust knots | rain 1hr in | rain 24hr in | rain mn in | humidity % | barometer mb |
| 20260506232703 | 51 | 187 | 0.0 | 4.3 | 0.00 | 0.00 | 0.00 | 83 | 1002.9 |
| 20260506231804 | 51 | 140 | 0.9 | 3.5 | 0.00 | 0.00 | 0.00 | 83 | 1002.9 |
| 20260506231113 | 51 | 223 | 1.7 | 3.5 | 0.00 | 0.00 | 0.00 | 82 | 1002.8 |
| 20260506230215 | 52 | 203 | 1.7 | 4.3 | 0.00 | 0.00 | 0.00 | 82 | 1002.9 |
| 20260506225403 | 52 | 169 | 1.7 | 4.3 | 0.00 | 0.00 | 0.00 | 81 | 1002.9 |
| 20260506224503 | 52 | 83 | 2.6 | 3.5 | 0.00 | 0.00 | 0.00 | 81 | 1002.9 |
| 20260506223603 | 52 | 227 | 2.6 | 3.5 | 0.00 | 0.00 | 0.00 | 81 | 1002.9 |
| 20260506222703 | 52 | 184 | 1.7 | 3.5 | 0.00 | 0.00 | 0.00 | 80 | 1003.0 |
| 20260506221804 | 53 | 80 | 0.0 | 3.5 | 0.00 | 0.00 | 0.00 | 80 | 1003.1 |
| 20260506221114 | 54 | 57 | 1.7 | 3.5 | 0.00 | 0.00 | 0.00 | 78 | 1003.0 |
| 20260506220003 | 54 | 282 | 0.0 | 3.5 | 0.00 | 0.00 | 0.00 | 78 | 1003.0 |
| 20260506215403 | 54 | 222 | 0.9 | 3.5 | 0.00 | 0.00 | 0.00 | 76 | 1003.0 |
| 20260506214715 | 54 | 175 | 1.7 | 3.5 | 0.00 | 0.00 | 0.00 | 74 | 1003.0 |
| 20260506213603 | 54 | 233 | 0.9 | 1.7 | 0.00 | 0.00 | 0.00 | 73 | 1002.9 |
| 20260506212915 | 55 | 229 | 0.0 | 3.5 | 0.00 | 0.00 | 0.00 | 72 | 1003.0 |
| 20260506212017 | 55 | 173 | 2.6 | 5.2 | 0.00 | 0.00 | 0.00 | 72 | 1003.1 |
| 20260506210904 | 55 | 206 | 1.7 | 2.6 | 0.00 | 0.00 | 0.00 | 72 | 1002.9 |
| 20260506210003 | 56 | 166 | 0.9 | 5.2 | 0.00 | 0.00 | 0.00 | 70 | 1003.0 |
| 20260506205403 | 57 | 209 | 2.6 | 5.2 | 0.00 | 0.00 | 0.00 | 67 | 1002.9 |
| 20260506204503 | 57 | 223 | 2.6 | 4.3 | 0.00 | 0.00 | 0.00 | 64 | 1002.8 |
| 20260506203813 | 58 | 218 | 1.7 | 3.5 | 0.00 | 0.00 | 0.00 | 63 | 1002.7 |
| 20260506202704 | 58 | 219 | 0.0 | 3.5 | 0.00 | 0.00 | 0.00 | 61 | 1002.6 |
| 20260506202012 | 58 | 192 | 0.0 | 2.6 | 0.00 | 0.00 | 0.00 | 59 | 1002.6 |
| 20260506201115 | 58 | 203 | 0.0 | 1.7 | 0.00 | 0.00 | 0.00 | 58 | 1002.5 |
| 20260506200003 | 58 | 234 | 2.6 | 6.1 | 0.00 | 0.00 | 0.00 | 57 | 1002.3 |
| 20260506195614 | 58 | 238 | 0.0 | 6.1 | 0.00 | 0.00 | 0.00 | 57 | 1002.3 |
| 20260506194503 | 59 | 227 | 0.0 | 8.7 | 0.00 | 0.00 | 0.00 | 57 | 1002.4 |
| 20260506193813 | 59 | 230 | 1.7 | 8.7 | 0.00 | 0.00 | 0.00 | 55 | 1002.2 |
| 20260506192703 | 60 | 231 | 1.7 | 7.0 | 0.00 | 0.00 | 0.00 | 54 | 1002.3 |
| 20260506192013 | 60 | 242 | 3.5 | 7.0 | 0.00 | 0.00 | 0.00 | 55 | 1002.2 |
| 20260506191116 | 60 | 200 | 0.0 | 1.7 | 0.00 | 0.00 | 0.00 | 57 | 1002.3 |
| 20260506190004 | 60 | 158 | 0.0 | 3.5 | 0.00 | 0.00 | 0.00 | 58 | 1002.1 |
| 20260506185614 | 60 | 330 | 0.0 | 6.1 | 0.00 | 0.00 | 0.00 | 57 | 1002.2 |
| 20260506184717 | 60 | 87 | 1.7 | 6.1 | 0.00 | 0.00 | 0.00 | 56 | 1002.2 |
| 20260506183604 | 61 | 89 | 0.0 | 3.5 | 0.00 | 0.00 | 0.00 | 52 | 1002.1 |
| 20260506182916 | 62 | 133 | 1.7 | 3.5 | 0.00 | 0.00 | 0.00 | 53 | 1002.1 |
| 20260506181803 | 63 | 262 | 0.9 | 5.2 | 0.00 | 0.00 | 0.00 | 49 | 1002.1 |
| 20260506181116 | 63 | 294 | 0.0 | 2.6 | 0.00 | 0.00 | 0.00 | 50 | 1002.2 |
| 20260506180213 | 63 | 279 | 0.9 | 3.5 | 0.00 | 0.00 | 0.00 | 50 | 1002.2 |
| 20260506175615 | 62 | 332 | 0.0 | 3.5 | 0.00 | 0.00 | 0.00 | 52 | 1002.1 |
| 20260506174717 | 61 | 29 | 1.7 | 6.1 | 0.00 | 0.00 | 0.00 | 55 | 1002.2 |
| 20260506173815 | 61 | 35 | 3.5 | 6.1 | 0.00 | 0.00 | 0.00 | 51 | 1002.2 |
| 20260506172917 | 62 | 236 | 2.6 | 6.1 | 0.00 | 0.00 | 0.00 | 49 | 1002.2 |
| 20260506172014 | 62 | 162 | 2.6 | 6.1 | 0.00 | 0.00 | 0.00 | 49 | 1002.3 |
| 20260506171117 | 62 | 180 | 2.6 | 9.6 | 0.00 | 0.00 | 0.00 | 48 | 1002.3 |
| 20260506170003 | 62 | 160 | 7.0 | 9.6 | 0.00 | 0.00 | 0.00 | 46 | 1002.3 |
| 20260506165616 | 62 | 149 | 4.3 | 10.4 | 0.00 | 0.00 | 0.00 | 48 | 1002.4 |
| 20260506164503 | 62 | 144 | 7.8 | 10.4 | 0.00 | 0.00 | 0.00 | 45 | 1002.2 |
| 20260506163603 | 64 | 152 | 4.3 | 15.6 | 0.00 | 0.00 | 0.00 | 40 | 1002.3 |
| 20260506162703 | 65 | 171 | 4.3 | 6.1 | 0.00 | 0.00 | 0.00 | 36 | 1002.0 |
| 20260506161803 | 66 | 149 | 1.7 | 4.3 | 0.00 | 0.00 | 0.00 | 33 | 1002.1 |
| 20260506160903 | 67 | 192 | 1.7 | 3.5 | 0.00 | 0.00 | 0.00 | 32 | 1002.1 |
| 20260506160003 | 67 | 146 | 0.9 | 7.8 | 0.00 | 0.00 | 0.00 | 32 | 1002.1 |
| 20260506155616 | 67 | 153 | 2.6 | 7.8 | 0.00 | 0.00 | 0.00 | 32 | 1002.2 |
| 20260506154503 | 67 | 153 | 3.5 | 9.6 | 0.00 | 0.00 | 0.00 | 31 | 1002.1 |
| 20260506153816 | 69 | 211 | 0.0 | 11.3 | 0.00 | 0.00 | 0.00 | 30 | 1002.2 |
| 20260506152913 | 71 | 172 | 7.0 | 11.3 | 0.00 | 0.00 | 0.00 | 28 | 1002.2 |
| 20260506151803 | 69 | 157 | 1.7 | 7.0 | 0.00 | 0.00 | 0.00 | 32 | 1002.4 |
| 20260506150903 | 68 | 142 | 3.5 | 7.0 | 0.00 | 0.00 | 0.00 | 31 | 1002.6 |
| 20260506150215 | 66 | 163 | 0.9 | 9.6 | 0.00 | 0.00 | 0.00 | 33 | 1002.5 |
| 20260506145403 | 66 | 153 | 7.0 | 14.8 | 0.00 | 0.00 | 0.00 | 34 | 1002.6 |
| 20260506144714 | 67 | 138 | 3.5 | 6.1 | 0.00 | 0.00 | 0.00 | 31 | 1002.7 |
| 20260506143817 | 68 | 250 | 0.0 | 3.5 | 0.00 | 0.00 | 0.00 | 28 | 1002.8 |
| 20260506142914 | 68 | 204 | 0.9 | 3.5 | 0.00 | 0.00 | 0.00 | 30 | 1002.9 |
| 20260506142016 | 67 | 227 | 1.7 | 4.3 | 0.00 | 0.00 | 0.00 | 29 | 1002.9 |
| 20260506141114 | 69 | 210 | 1.7 | 4.3 | 0.00 | 0.00 | 0.00 | 27 | 1002.9 |
| 20260506140216 | 69 | 198 | 1.7 | 9.6 | 0.00 | 0.00 | 0.00 | 25 | 1003.0 |
| 20260506135618 | 70 | 246 | 3.5 | 9.6 | 0.00 | 0.00 | 0.00 | 23 | 1003.0 |
| 20260506134504 | 74 | 243 | 1.7 | 3.5 | 0.00 | 0.00 | 0.00 | 23 | 1003.1 |
| 20260506133817 | 72 | 271 | 0.9 | 4.3 | 0.00 | 0.00 | 0.00 | 21 | 1003.2 |
| 20260506132703 | 72 | 246 | 5.2 | 8.7 | 0.00 | 0.00 | 0.00 | 21 | 1003.3 |
| 20260506131803 | 72 | 247 | 3.5 | 7.0 | 0.00 | 0.00 | 0.00 | 21 | 1003.2 |
| 20260506130903 | 71 | 222 | 1.7 | 7.0 | 0.00 | 0.00 | 0.00 | 22 | 1003.4 |
| 20260506130004 | 71 | 256 | 1.7 | 7.0 | 0.00 | 0.00 | 0.00 | 21 | 1003.4 |
| 20260506125403 | 71 | 231 | 1.7 | 6.1 | 0.00 | 0.00 | 0.00 | 22 | 1003.6 |
| 20260506124716 | 69 | 249 | 2.6 | 7.0 | 0.00 | 0.00 | 0.00 | 24 | 1003.7 |
| 20260506123818 | 71 | 217 | 3.5 | 7.0 | 0.00 | 0.00 | 0.00 | 23 | 1003.9 |
| 20260506122915 | 68 | 258 | 0.0 | 6.1 | 0.00 | 0.00 | 0.00 | 28 | 1004.0 |
| 20260506122013 | 69 | 252 | 3.5 | 6.1 | 0.00 | 0.00 | 0.00 | 29 | 1004.0 |
| 20260506120903 | 69 | 235 | 1.7 | 7.0 | 0.00 | 0.00 | 0.00 | 27 | 1004.2 |
| 20260506120003 | 68 | 211 | 1.7 | 4.3 | 0.00 | 0.00 | 0.00 | 30 | 1004.4 |
| 20260506115404 | 68 | 225 | 1.7 | 5.2 | 0.00 | 0.00 | 0.00 | 31 | 1004.4 |
| 20260506114503 | 69 | 276 | 1.7 | 6.1 | 0.00 | 0.00 | 0.00 | 30 | 1004.6 |
| 20260506113813 | 68 | 247 | 3.5 | 7.0 | 0.00 | 0.00 | 0.00 | 30 | 1004.7 |
| 20260506112916 | 68 | 230 | 0.9 | 2.6 | 0.00 | 0.00 | 0.00 | 32 | 1004.8 |
| 20260506112013 | 67 | 196 | 1.7 | 3.5 | 0.00 | 0.00 | 0.00 | 32 | 1004.9 |
| 20260506110903 | 67 | 220 | 0.0 | 3.5 | 0.00 | 0.00 | 0.00 | 34 | 1005.1 |
| 20260506110213 | 65 | 251 | 0.9 | 2.6 | 0.00 | 0.00 | 0.00 | 35 | 1005.1 |
| 20260506105403 | 66 | 248 | 1.7 | 3.5 | 0.00 | 0.00 | 0.00 | 33 | 1005.1 |
| 20260506104717 | 65 | 199 | 0.0 | 6.1 | 0.00 | 0.00 | 0.00 | 37 | 1005.0 |
| 20260506103814 | 64 | 224 | 1.7 | 6.1 | 0.00 | 0.00 | 0.00 | 34 | 1005.1 |
| 20260506102917 | 66 | 263 | 0.0 | 3.5 | 0.00 | 0.00 | 0.00 | 34 | 1005.2 |
| 20260506102014 | 66 | 233 | 2.6 | 3.5 | 0.00 | 0.00 | 0.00 | 35 | 1005.2 |
| 20260506100903 | 66 | 230 | 0.9 | 4.3 | 0.00 | 0.00 | 0.00 | 38 | 1005.2 |
| 20260506100213 | 64 | 236 | 1.7 | 4.3 | 0.00 | 0.00 | 0.00 | 38 | 1005.3 |
| 20260506095615 | 63 | 264 | 0.9 | 4.3 | 0.00 | 0.00 | 0.00 | 38 | 1005.3 |
| 20260506094712 | 65 | 248 | 2.6 | 4.3 | 0.00 | 0.00 | 0.00 | 42 | 1005.3 |
| 20260506093815 | 65 | 240 | 2.6 | 4.3 | 0.00 | 0.00 | 0.00 | 45 | 1005.4 |
| 20260506092917 | 63 | 244 | 1.7 | 3.5 | 0.00 | 0.00 | 0.00 | 50 | 1005.3 |
| 20260506092014 | 60 | 206 | 0.9 | 3.5 | 0.00 | 0.00 | 0.00 | 60 | 1005.4 |
| 20260506090903 | 56 | 195 | 0.0 | 4.3 | 0.00 | 0.00 | 0.00 | 67 | 1005.4 |
| 20260506090214 | 55 | 248 | 0.0 | 6.1 | 0.00 | 0.00 | 0.00 | 70 | 1005.5 |
| 20260506085403 | 54 | 229 | 1.7 | 6.1 | 0.00 | 0.00 | 0.00 | 70 | 1005.4 |
| 20260506084713 | 54 | 238 | 0.0 | 4.3 | 0.00 | 0.00 | 0.00 | 72 | 1005.4 |
| 20260506083815 | 54 | 244 | 2.6 | 3.5 | 0.00 | 0.00 | 0.00 | 73 | 1005.5 |
| 20260506082703 | 54 | 223 | 1.7 | 3.5 | 0.00 | 0.00 | 0.00 | 74 | 1005.4 |
| 20260506082015 | 54 | 252 | 0.9 | 3.5 | 0.00 | 0.00 | 0.00 | 76 | 1005.5 |
| 20260506081117 | 54 | 244 | 0.9 | 2.6 | 0.00 | 0.00 | 0.00 | 78 | 1005.6 |
| 20260506080215 | 53 | 266 | 0.0 | 1.7 | 0.00 | 0.00 | 0.00 | 81 | 1005.7 |
| 20260506072704 | 50 | 14 | 2.6 | 5.2 | 0.00 | 0.00 | 0.00 | 84 | 1005.6 |
| 20260506072016 | 50 | 240 | 1.7 | 5.2 | 0.00 | 0.00 | 0.00 | 84 | 1005.6 |
| 20260506070903 | 51 | 236 | 1.7 | 4.3 | 0.00 | 0.00 | 0.00 | 84 | 1005.7 |
| 20260506062016 | 50 | 225 | 1.7 | 2.6 | 0.00 | 0.00 | 0.00 | 90 | 1005.6 |
| 20260506060903 | 49 | 225 | 0.0 | 0.9 | 0.00 | 0.00 | 0.00 | 92 | 1005.7 |
| 20260506051114 | 48 | 225 | 0.0 | 0.9 | 0.00 | 0.00 | 0.00 | 93 | 1005.2 |
| 20260506044503 | 48 | 155 | 0.0 | 2.6 | 0.00 | 0.00 | 0.00 | 94 | 1005.2 |
| 20260506043603 | 48 | 211 | 1.7 | 2.6 | 0.00 | 0.00 | 0.00 | 94 | 1005.2 |
| 20260506042915 | 48 | 242 | 0.9 | 2.6 | 0.00 | 0.00 | 0.00 | 93 | 1005.3 |
| 20260506042013 | 48 | 193 | 0.0 | 2.6 | 0.00 | 0.00 | 0.00 | 92 | 1005.3 |
| 20260506040903 | 48 | 245 | 0.9 | 2.6 | 0.00 | 0.00 | 0.00 | 90 | 1005.5 |
| 20260506040217 | 49 | 185 | 0.9 | 2.6 | 0.00 | 0.00 | 0.00 | 90 | 1005.4 |
| 20260506035403 | 49 | 225 | 0.0 | 1.7 | 0.00 | 0.00 | 0.00 | 90 | 1005.5 |
| 20260506034716 | 49 | 225 | 0.0 | 0.9 | 0.00 | 0.00 | 0.00 | 91 | 1005.5 |
| 20260506033603 | 49 | 225 | 0.0 | 0.9 | 0.00 | 0.00 | 0.00 | 91 | 1005.7 |
| 20260506032916 | 49 | 0 | 0.0 | 0.0 | 0.00 | 0.00 | 0.00 | 91 | 1005.7 |
| 20260506031803 | 49 | 205 | 0.0 | 1.7 | 0.00 | 0.00 | 0.00 | 91 | 1005.7 |
| 20260506030903 | 49 | 207 | 0.0 | 1.7 | 0.00 | 0.00 | 0.00 | 90 | 1005.7 |
| 20260506030003 | 49 | 225 | 0.0 | 2.6 | 0.00 | 0.00 | 0.00 | 88 | 1005.7 |
| 20260506025614 | 49 | 225 | 0.0 | 2.6 | 0.00 | 0.00 | 0.00 | 88 | 1005.7 |
| 20260506024503 | 49 | 255 | 0.0 | 1.7 | 0.00 | 0.00 | 0.00 | 88 | 1005.6 |
| 20260506023814 | 49 | 251 | 0.9 | 1.7 | 0.00 | 0.00 | 0.00 | 88 | 1005.7 |
| 20260506022916 | 49 | 245 | 0.0 | 1.7 | 0.00 | 0.00 | 0.00 | 88 | 1005.6 |
| 20260506021803 | 49 | 240 | 0.0 | 1.7 | 0.00 | 0.00 | 0.00 | 89 | 1005.8 |
| 20260506021116 | 49 | 268 | 0.0 | 1.7 | 0.00 | 0.00 | 0.00 | 89 | 1005.8 |
| 20260506020213 | 49 | 246 | 0.9 | 3.5 | 0.00 | 0.00 | 0.00 | 90 | 1005.9 |
| 20260506015403 | 49 | 225 | 1.7 | 2.6 | 0.00 | 0.00 | 0.00 | 91 | 1005.9 |
| 20260506014503 | 49 | 185 | 0.0 | 2.6 | 0.00 | 0.00 | 0.00 | 91 | 1005.8 |
| 20260506013604 | 49 | 0 | 0.0 | 0.0 | 0.00 | 0.00 | 0.00 | 91 | 1005.9 |
| 20260506012703 | 49 | 180 | 0.0 | 0.9 | 0.00 | 0.00 | 0.00 | 90 | 1005.9 |
| 20260506011803 | 49 | 232 | 0.0 | 1.7 | 0.00 | 0.00 | 0.00 | 89 | 1005.9 |
| 20260506011117 | 49 | 191 | 0.0 | 0.9 | 0.00 | 0.00 | 0.00 | 89 | 1005.9 |
| 20260506010004 | 49 | 0 | 0.0 | 0.0 | 0.00 | 0.00 | 0.00 | 88 | 1005.9 |
| 20260506005616 | 49 | 0 | 0.0 | 0.0 | 0.00 | 0.00 | 0.00 | 89 | 1006.0 |
| 20260506004503 | 50 | 228 | 0.0 | 1.7 | 0.00 | 0.00 | 0.00 | 89 | 1006.1 |
| 20260506003815 | 50 | 239 | 0.0 | 1.7 | 0.00 | 0.00 | 0.00 | 88 | 1006.2 |
| 20260506002703 | 49 | 246 | 0.0 | 1.7 | 0.00 | 0.00 | 0.00 | 88 | 1006.3 |
| 20260506001803 | 49 | 230 | 0.0 | 1.7 | 0.00 | 0.00 | 0.00 | 87 | 1006.3 |
| 20260506001112 | 49 | 235 | 0.0 | 1.7 | 0.00 | 0.00 | 0.00 | 87 | 1006.2 |
| 20260506000003 | 49 | 0 | 0.0 | 0.0 | 0.00 | 0.00 | 0.00 | 87 | 1006.2 |
| 20260505235616 | 50 | 0 | 0.0 | 0.0 | 0.00 | 0.00 | 0.00 | 87 | 1006.2 |
| 20260505234503 | 50 | 231 | 0.0 | 0.9 | 0.00 | 0.00 | 0.00 | 87 | 1006.3 |
| 20260505233816 | 50 | 225 | 0.0 | 0.9 | 0.00 | 0.00 | 0.00 | 87 | 1006.3 |